Flight Track Log - Related Links

Times and Time Zones

All times are in EST time to prevent confusion due to time zone crossing. See the ASQ5740 flight status page for this flight to view local times or setup timezone preferences in your user account.

Time Position Orientation Groundspeed Altitude Reporting Facility
EST Latitude Longitude Course Direction KTS MPH feet Rate Location/Type
Sat 02:55:38 PM 35.0400 -82.1261 28° Northeast 232 267 6,500  Level Atlanta Center
Sat 02:56:38 PM 35.1100 -82.0736 32° Northeast 269 310 9,100 2,150 Climbing Atlanta Center
Sat 02:57:38 PM 35.1864 -82.0208 29° Northeast 289 333 10,800 1,600 Climbing Atlanta Center
Sat 02:58:38 PM 35.2472 -81.9253 52° Northeast 320 368 12,300 1,650 Climbing Atlanta Center
Sat 02:59:00 PM 35.3722 -81.6954 68° East  Level Estimated
Sat 02:59:38 PM 35.2997 -81.8197 59° Northeast 378 435 14,100  Level Atlanta Center
Sat 03:00:38 PM 35.3689 -81.7261 48° Northeast 384 442 15,600 1,550 Climbing Atlanta Center
Sat 03:01:38 PM 35.4458 -81.6092 51° Northeast 384 442 17,200 1,250 Climbing Atlanta Center
Sat 03:02:38 PM 35.5086 -81.5156 51° Northeast 389 448 18,100 950 Climbing Atlanta Center
Sat 03:03:38 PM 35.5817 -81.4136 49° Northeast 389 448 19,100 1,000 Climbing Atlanta Center
Sat 03:04:38 PM 35.6522 -81.2939 54° Northeast 401 461 20,100 1,050 Climbing Atlanta Center
Sat 03:05:38 PM 35.7225 -81.1739 54° Northeast 422 486 21,200 950 Climbing Atlanta Center
Sat 03:06:38 PM 35.7947 -81.0614 52° Northeast 422 486 22,000 800 Climbing Atlanta Center
Sat 03:07:38 PM 35.8711 -80.9406 52° Northeast 427 491 22,800 800 Climbing Atlanta Center
Sat 03:08:38 PM 35.9433 -80.8275 52° Northeast 427 491 23,600 1,000 Climbing Atlanta Center
Sat 03:09:38 PM 36.0144 -80.6836 59° Northeast 437 503 24,800 900 Climbing Atlanta Center
Sat 03:10:38 PM 36.0669 -80.5400 66° East 442 509 25,400 650 Climbing Atlanta Center
Sat 03:11:38 PM 36.1211 -80.3964 65° Northeast 442 509 26,100 1,049 Climbing Atlanta Center
Sat 03:14:04 PM 36.2047 -80.0403 74° East 449 517 29,000 841 Climbing Washington Center
Sat 03:15:05 PM 36.2781 -79.9233 52° Northeast 418 481 29,000  Level Washington Center
Sat 03:16:05 PM 36.3556 -79.7986 52° Northeast 430 495 29,000  Level Washington Center
Sat 03:17:05 PM 36.4311 -79.6658 55° Northeast 448 516 29,000  Level Washington Center
Sat 03:18:06 PM 36.5106 -79.5356 53° Northeast 468 539 29,000 -248 Level Washington Center
Sat 03:19:06 PM 36.5856 -79.4100 53° Northeast 484 557 28,500 -508 Descending Washington Center
Sat 03:20:04 PM 36.6692 -79.2742 52° Northeast 490 564 28,000 -555 Descending Washington Center
Sat 03:21:05 PM 36.7481 -79.1458 52° Northeast 483 556 27,400 -645 Descending Washington Center
Sat 03:22:05 PM 36.8292 -79.0119 53° Northeast 454 522 26,700 -595 Descending Washington Center
Sat 03:23:06 PM 36.9036 -78.8853 54° Northeast 447 514 26,200 -555 Descending Washington Center
Sat 03:24:04 PM 36.9778 -78.7639 53° Northeast 447 514 25,600 -605 Descending Washington Center
Sat 03:25:05 PM 37.0519 -78.6392 53° Northeast 447 514 25,000 -298 Descending Washington Center
Sat 03:26:05 PM 37.1194 -78.5300 52° Northeast 442 509 25,000  Level Washington Center
Sat 03:27:05 PM 37.1911 -78.4075 54° Northeast 442 509 25,000  Level Washington Center
Sat 03:28:06 PM 37.2650 -78.2825 53° Northeast 447 514 25,000 -694 Level Washington Center
Sat 03:29:06 PM 37.3694 -78.1817 37° Northeast 427 491 23,600 -1,361 Descending Washington Center
Sat 03:30:05 PM 37.4503 -78.1111 35° Northeast 410 472 22,300 -807 Descending Washington Center
Sat 03:31:05 PM 37.5458 -78.0303 34° Northeast 404 465 22,000 -149 Descending Washington Center
Sat 03:32:06 PM 37.6372 -77.9467 36° Northeast 404 465 22,000 -694 Level Washington Center
Sat 03:33:06 PM 37.7306 -77.8631 35° Northeast 404 465 20,600 -1,881 Descending Washington Center
Sat 03:34:04 PM 37.8197 -77.7817 36° Northeast 404 465 18,300 -2,186 Descending Washington Center
Sat 03:35:04 PM 37.9022 -77.7050 36° Northeast 385 443 16,300 -2,132 Descending Washington Center
Sat 03:36:05 PM 37.9828 -77.6336 35° Northeast 364 419 14,000 -2,213 Descending Washington Center
Sat 03:37:06 PM 38.0697 -77.5514 37° Northeast 353 406 11,800 -2,017 Descending Washington Center
Sat 03:38:04 PM 38.1500 -77.4769 36° Northeast 353 406 10,000 -915 Descending Washington Center
Sat 03:39:04 PM 38.2239 -77.4233 30° Northeast 336 387 10,000  Level Washington Center
Sat 03:40:04 PM 38.2975 -77.3775 26° Northeast 309 356 10,000 -595 Level Washington Center
Sat 03:41:05 PM 38.3647 -77.3553 15° North 275 316 8,800 -1,230 Descending Washington Center
Sat 03:42:06 PM 38.4333 -77.3597 357° North 249 287 7,500 -1,328 Descending Washington Center
Sat 03:43:07 PM 38.4981 -77.3639 357° North 238 274 6,100 -1,271 Descending Washington Center
Sat 03:44:04 PM 38.5625 -77.3653 359° North 233 268 5,000 -915 Descending Washington Center
Sat 03:45:05 PM 38.6292 -77.3669 359° North 233 268 4,300 -488 Descending Washington Center
Sat 03:46:07 PM 38.6939 -77.3631 North 233 268 4,000 -145 Descending Washington Center
Sat 03:47:09 PM 38.7667 -77.3500 North 240 276 4,000  Level Potomac TRACON
Sat 03:48:09 PM 38.8333 -77.3500 360° North 241 277 4,000  Level Potomac TRACON
Sat 03:49:09 PM 38.9000 -77.3500 360° North 240 276 4,000  Level Potomac TRACON
Sat 03:50:09 PM 38.9667 -77.3500 360° North 238 274 4,000  Level Potomac TRACON
Sat 03:51:10 PM 39.0333 -77.3500 360° North 227 261 4,000  Level Potomac TRACON
Sat 03:52:10 PM 39.0833 -77.3500 360° North 208 239 4,000  Level Potomac TRACON
Sat 03:53:10 PM 39.1500 -77.3500 360° North 213 245 4,000 -150 Level Potomac TRACON
Sat 03:54:10 PM 39.2167 -77.3500 360° North 217 250 3,700 -500 Descending Potomac TRACON
Sat 03:55:10 PM 39.2667 -77.3667 346° North 220 253 3,000 -350 Descending Potomac TRACON
Sat 03:56:10 PM 39.2500 -77.4167 247° West 198 228 3,000  Level Potomac TRACON
Sat 03:57:04 PM 39.2167 -77.4333 201° Southwest 159 183 3,000  Level Potomac TRACON
Sat 03:58:04 PM 39.1667 -77.4333 180° South 163 188 3,000  Level Potomac TRACON
Sat 03:59:04 PM 39.1167 -77.4333 180° South 162 186 3,000 -100 Level Potomac TRACON
Sat 04:00:04 PM 39.0833 -77.4333 180° South 165 190 2,800 -579 Descending Potomac TRACON
Sat 04:00:58 PM 39.0333 -77.4333 180° South 165 190 1,900 -895 Descending Potomac TRACON
Sat 04:01:58 PM 39.0000 -77.4333 180° South 143 165 1,100 -800 Descending Potomac TRACON
Sat 04:03:00 PM 38.9474 -77.4599 195° South  Level Estimated

Login

Don't have an account? Register now (free) for customized features, flight alerts, and more!